Location: Newark
(51.3318°N, 0.0053°E)
Time: 00:37:49
(UTC+00:00)

LO-87 - Pass Details

Date: 01 July 2022
Orbit: 450 x 466 km, 97.4° (Epoch: 15 August)

Event Time Altitude Azimuth Distance (km) Brightness Sun altitude
Exits shadow 21:49:46 - 98° (E) 2,102 ? -10.0°
Maximum altitude 21:52:48 10° 57° (ENE) 1,626 ? -10.2°
Drops below altitude 10° 21:55:09 - 23° (NNE) 1,939 ? -10.4°
Sets 21:57:06 0° 6° (N) 2,517 ? -10.6°
